Regional Weather Roundup
Issued by NWS Sioux Falls, SD

Home | Current Version | Previous Version | Graphics & Text | Print | Product List | Glossary On
Versions: 1 2 3 4 5 6 7 8 9 10 11 12 13 14 15 16 17 18 19 20 21 22 23 24 25 26 27 28 29 30 31 32 33 34 35 36 37 38 39 40 41 42 43 44 45 46 47 48 49 50
000
ASUS43 KFSD 300710
RWRFSD

WEATHER ROUNDUP FOR SE SOUTH DAKOTA/SW MINNESOTA/NW IOWA
NATIONAL WEATHER SERVICE SIOUX FALLS SD
200 AM CDT SAT APR 30 2016

NOTE: "FAIR" INDICATES FEW OR NO CLOUDS BELOW 12,000 FEET WITH NO
SIGNIFICANT WEATHER AND OR OBSTRUCTIONS TO VISIBILITY.


SDZ038>040-050-052>070-300800-
SOUTHEAST SOUTH DAKOTA

CITY           SKY/WX    TMP DP  RH WIND       PRES   REMARKS
BROOKINGS      PTCLDY    38  35  89 NE3       30.06F
CHAMBERLAIN    CLOUDY    45  42  90 NE6       30.00S
HURON          MOCLDY    42  39  89 NE9       30.04F
MADISON        FAIR      39  39 100 NE7       30.04F
MITCHELL       CLOUDY    45  41  86 E10       30.02F
SIOUX FALLS    CLOUDY    42  39  89 NE10      30.02F
WINNER         CLOUDY    43  39  86 NE8       29.99F
YANKTON        CLOUDY    45  37  76 NE16      29.97F
$$

MNZ071-072-080-081-089-090-097-098-300800-
SOUTHWEST MINNESOTA

CITY           SKY/WX    TMP DP  RH WIND       PRES   REMARKS
FAIRMONT       CLOUDY    43  30  61 E7        30.05F
JACKSON        CLOUDY    43  37  81 E9        30.05F
LUVERNE        CLOUDY    41  36  81 NE8       30.03F
MARSHALL       CLEAR     41  38  89 CALM      30.09S
MONTEVIDEO     PTCLDY    41  37  87 SE9       30.12S
REDWOOD FALLS  PTCLDY    41  37  86 N6        30.10R
TRACY          CLEAR     41  39  92 CALM      30.08F
WINDOM         CLOUDY    41  37  87 CALM      30.06F
WORTHINGTON    CLOUDY    40  38  93 NE10      30.04F
$$

IAZ001>003-012>014-020>022-031-032-NEZ013-014-SDZ071-300800-
NORTHWEST IOWA

CITY           SKY/WX    TMP DP  RH WIND       PRES   REMARKS
CHEROKEE       CLOUDY    44  41  91 NE12      29.98F
DENISON        CLOUDY    45  41  87 E17G29    29.90F
ESTHERVILLE    CLOUDY    42  40  92 NE8       30.04F
LE MARS        CLOUDY    45  41  87 NE13G18   29.97F
ORANGE CITY    DRIZZLE   45  41  87 E10       29.98F
SHELDON        CLOUDY    43  41  93 NE10      29.99F
SIOUX CITY     CLOUDY    46  39  76 E14       29.94F
SPENCER        CLOUDY    45  39  79 E13       30.02F
STORM LAKE     CLOUDY    43  41  93 E18G24    29.98F
$$

ABBREVIATIONS USED IN REMARKS
   TC - TEMPERATURE IN CELSIUS
  WCI - WIND CHILL INDEX
   HX - HEAT INDEX
  VSB - VISIBILITY





USA.gov is the U.S. government's official web portal to all federal, state and local government web resources and services.